| time (UTC) | temp F | wind direction | speed knots | gust knots | rain 1hr in | rain 24hr in | rain mn in | humidity % | barometer mb |
| 20260507110035 | 37 | 272 | 1.7 | 4.3 | 0.00 | 0.24 | 0.00 | 52 | 1008.9 |
| 20260507104535 | 36 | 317 | 2.6 | 4.3 | 0.00 | 0.24 | 0.00 | 52 | 1008.9 |
| 20260507103033 | 36 | 317 | 1.7 | 3.5 | 0.00 | 0.24 | 0.00 | 53 | 1008.7 |
| 20260507101539 | 36 | 318 | 0.0 | 2.6 | 0.00 | 0.24 | 0.00 | 54 | 1008.6 |
| 20260507100045 | 36 | 318 | 0.9 | 3.5 | 0.00 | 0.24 | 0.00 | 54 | 1008.8 |
| 20260507094531 | 36 | 318 | 0.9 | 2.6 | 0.00 | 0.24 | 0.00 | 55 | 1008.8 |
| 20260507093030 | 36 | 318 | 0.9 | 4.3 | 0.00 | 0.24 | 0.00 | 55 | 1008.7 |
| 20260507091530 | 36 | 319 | 0.9 | 3.5 | 0.00 | 0.24 | 0.00 | 56 | 1008.7 |
| 20260507090031 | 36 | 319 | 0.9 | 2.6 | 0.00 | 0.24 | 0.00 | 57 | 1008.6 |
| 20260507084524 | 36 | 319 | 0.9 | 2.6 | 0.00 | 0.24 | 0.00 | 57 | 1008.7 |
| 20260507083021 | 37 | 319 | 0.0 | 1.7 | 0.00 | 0.24 | 0.00 | 57 | 1008.7 |
| 20260507081521 | 37 | 319 | 0.0 | 0.9 | 0.00 | 0.24 | 0.00 | 57 | 1008.6 |
| 20260507080017 | 37 | 319 | 0.0 | 1.7 | 0.00 | 0.24 | 0.00 | 57 | 1008.8 |
| 20260507074514 | 38 | 319 | 0.0 | 1.7 | 0.00 | 0.24 | 0.00 | 57 | 1008.8 |
| 20260507073011 | 38 | 319 | 0.0 | 2.6 | 0.00 | 0.24 | 0.00 | 57 | 1008.9 |
| 20260507071511 | 39 | 319 | 0.9 | 2.6 | 0.00 | 0.24 | 0.00 | 56 | 1008.9 |
| 20260507070009 | 40 | 319 | 0.0 | 2.6 | 0.00 | 0.24 | 0.00 | 55 | 1008.9 |
| 20260507064503 | 40 | 319 | 0.0 | 0.0 | 0.00 | 0.24 | 0.00 | 55 | 1008.8 |
| 20260507063100 | 40 | 319 | 0.0 | 0.0 | 0.00 | 0.24 | 0.00 | 55 | 1008.8 |
| 20260507061600 | 41 | 319 | 0.0 | 0.0 | 0.00 | 0.24 | 0.00 | 54 | 1009.0 |
| 20260507060059 | 41 | 319 | 0.0 | 2.6 | 0.00 | 0.24 | 0.00 | 54 | 1009.2 |
| 20260507054556 | 41 | 319 | 0.9 | 2.6 | 0.00 | 0.24 | 0.00 | 54 | 1009.3 |
| 20260507053055 | 41 | 319 | 1.7 | 3.5 | 0.00 | 0.24 | 0.00 | 53 | 1009.5 |
| 20260507051553 | 41 | 315 | 0.9 | 3.5 | 0.00 | 0.24 | 0.00 | 52 | 1009.5 |
| 20260507050051 | 41 | 323 | 2.6 | 4.3 | 0.00 | 0.24 | 0.00 | 50 | 1009.6 |
| 20260507044550 | 41 | 322 | 0.9 | 7.0 | 0.00 | 0.24 | 0.00 | 49 | 1009.6 |
| 20260507043047 | 41 | 321 | 2.6 | 4.3 | 0.00 | 0.24 | 0.00 | 49 | 1009.4 |
| 20260507041547 | 42 | 322 | 2.6 | 4.3 | 0.00 | 0.24 | 0.00 | 49 | 1009.3 |
| 20260507040043 | 42 | 327 | 1.7 | 3.5 | 0.00 | 0.24 | 0.24 | 49 | 1009.3 |
| 20260507034544 | 42 | 327 | 2.6 | 4.3 | 0.00 | 0.24 | 0.24 | 49 | 1009.2 |
| 20260507033040 | 42 | 328 | 3.5 | 5.2 | 0.00 | 0.24 | 0.24 | 49 | 1009.1 |
| 20260507031539 | 42 | 328 | 2.6 | 5.2 | 0.00 | 0.24 | 0.24 | 49 | 1009.0 |
| 20260507030039 | 42 | 328 | 3.5 | 8.7 | 0.00 | 0.24 | 0.24 | 49 | 1009.0 |
| 20260507024537 | 42 | 334 | 3.5 | 7.8 | 0.00 | 0.24 | 0.24 | 49 | 1008.8 |
| 20260507023040 | 43 | 329 | 5.2 | 10.4 | 0.00 | 0.24 | 0.24 | 48 | 1008.9 |
| 20260507021532 | 43 | 348 | 3.5 | 7.8 | 0.00 | 0.24 | 0.24 | 48 | 1008.9 |
| 20260507020036 | 43 | 344 | 1.7 | 7.8 | 0.00 | 0.24 | 0.24 | 48 | 1008.9 |
| 20260507014541 | 43 | 351 | 4.3 | 10.4 | 0.00 | 0.24 | 0.24 | 49 | 1009.0 |
| 20260507013028 | 44 | 330 | 3.5 | 11.3 | 0.00 | 0.24 | 0.24 | 49 | 1008.7 |
| 20260507011528 | 44 | 350 | 6.1 | 11.3 | 0.00 | 0.24 | 0.24 | 49 | 1008.7 |
| 20260507010026 | 45 | 339 | 6.1 | 9.6 | 0.00 | 0.24 | 0.24 | 50 | 1008.7 |
| 20260507004533 | 45 | 339 | 6.1 | 11.3 | 0.00 | 0.24 | 0.24 | 50 | 1008.3 |
| 20260507003025 | 45 | 329 | 6.1 | 10.4 | 0.00 | 0.24 | 0.24 | 50 | 1008.2 |
| 20260507001525 | 46 | 325 | 7.8 | 13.9 | 0.00 | 0.24 | 0.24 | 51 | 1007.9 |
| 20260507000025 | 47 | 312 | 9.6 | 13.0 | 0.00 | 0.24 | 0.24 | 49 | 1007.8 |
| 20260506234529 | 47 | 314 | 7.8 | 11.3 | 0.00 | 0.24 | 0.24 | 49 | 1007.5 |
| 20260506233015 | 48 | 321 | 6.1 | 10.4 | 0.00 | 0.24 | 0.24 | 48 | 1007.3 |
| 20260506231528 | 48 | 277 | 2.6 | 6.1 | 0.00 | 0.24 | 0.24 | 48 | 1007.1 |
| 20260506230011 | 48 | 355 | 1.7 | 3.5 | 0.00 | 0.25 | 0.24 | 47 | 1006.9 |
| 20260506224510 | 48 | 355 | 1.7 | 4.3 | 0.00 | 0.25 | 0.24 | 46 | 1006.8 |
| 20260506223007 | 47 | 356 | 0.0 | 1.7 | 0.00 | 0.25 | 0.24 | 46 | 1006.6 |
| 20260506221506 | 47 | 356 | 0.0 | 1.7 | 0.00 | 0.25 | 0.24 | 46 | 1006.5 |
| 20260506220006 | 47 | 356 | 0.0 | 3.5 | 0.00 | 0.25 | 0.24 | 46 | 1006.4 |
| 20260506214505 | 48 | 356 | 0.0 | 2.6 | 0.00 | 0.25 | 0.24 | 45 | 1006.3 |
| 20260506213004 | 47 | 356 | 0.0 | 2.6 | 0.00 | 0.25 | 0.24 | 44 | 1006.4 |
| 20260506211509 | 47 | 356 | 0.0 | 3.5 | 0.00 | 0.25 | 0.24 | 44 | 1006.3 |
| 20260506210002 | 47 | 356 | 1.7 | 4.3 | 0.00 | 0.25 | 0.24 | 44 | 1006.3 |
| 20260506204502 | 47 | 356 | 1.7 | 4.3 | 0.00 | 0.25 | 0.24 | 44 | 1006.3 |
| 20260506203001 | 47 | 357 | 1.7 | 4.3 | 0.00 | 0.25 | 0.24 | 44 | 1006.1 |
| 20260506201610 | 46 | 357 | 0.9 | 3.5 | 0.00 | 0.25 | 0.24 | 44 | 1006.3 |
| 20260506194614 | 46 | 358 | 1.7 | 4.3 | 0.00 | 0.25 | 0.24 | 45 | 1006.2 |
| 20260506193056 | 45 | 358 | 0.9 | 3.5 | 0.00 | 0.25 | 0.24 | 45 | 1005.9 |
| 20260506191556 | 45 | 357 | 2.6 | 7.0 | 0.01 | 0.25 | 0.24 | 45 | 1005.9 |
| 20260506190056 | 45 | 360 | 3.5 | 8.7 | 0.01 | 0.25 | 0.24 | 45 | 1006.0 |
| 20260506184607 | 45 | 353 | 4.3 | 7.8 | 0.01 | 0.25 | 0.24 | 45 | 1005.9 |
| 20260506183101 | 45 | 352 | 5.2 | 8.7 | 0.01 | 0.25 | 0.24 | 45 | 1005.8 |
| 20260506181553 | 45 | 360 | 3.5 | 7.8 | 0.00 | 0.24 | 0.23 | 45 | 1005.6 |
| 20260506180054 | 45 | 360 | 3.5 | 8.7 | 0.00 | 0.24 | 0.23 | 45 | 1005.6 |
| 20260506174552 | 45 | 3 | 3.5 | 7.0 | 0.00 | 0.24 | 0.23 | 45 | 1005.7 |
| 20260506173052 | 45 | 9 | 0.9 | 4.3 | 0.00 | 0.24 | 0.23 | 45 | 1005.4 |
| 20260506171549 | 46 | 9 | 1.7 | 3.5 | 0.00 | 0.24 | 0.23 | 45 | 1005.2 |
| 20260506170106 | 46 | 9 | 1.7 | 7.0 | 0.00 | 0.24 | 0.23 | 45 | 1004.9 |
| 20260506164545 | 46 | 26 | 0.9 | 7.8 | 0.00 | 0.24 | 0.23 | 45 | 1004.8 |
| 20260506163054 | 46 | 38 | 0.9 | 3.5 | 0.00 | 0.24 | 0.23 | 44 | 1004.9 |
| 20260506161544 | 46 | 37 | 1.7 | 7.0 | 0.00 | 0.24 | 0.23 | 45 | 1004.7 |
| 20260506160043 | 46 | 140 | 0.0 | 5.2 | 0.01 | 0.24 | 0.23 | 45 | 1004.8 |
| 20260506154543 | 45 | 140 | 0.0 | 4.3 | 0.02 | 0.24 | 0.23 | 45 | 1004.6 |
| 20260506153041 | 45 | 140 | 0.9 | 4.3 | 0.02 | 0.24 | 0.23 | 45 | 1004.7 |
| 20260506151544 | 45 | 140 | 0.0 | 4.3 | 0.03 | 0.24 | 0.23 | 45 | 1004.6 |
| 20260506150039 | 44 | 140 | 0.9 | 4.3 | 0.02 | 0.23 | 0.22 | 45 | 1004.5 |
| 20260506144550 | 44 | 140 | 0.9 | 4.3 | 0.01 | 0.22 | 0.21 | 45 | 1004.5 |
| 20260506143038 | 44 | 140 | 0.9 | 4.3 | 0.01 | 0.22 | 0.21 | 46 | 1004.1 |
| 20260506141537 | 44 | 140 | 0.0 | 5.2 | 0.01 | 0.21 | 0.20 | 46 | 1003.8 |
| 20260506140038 | 44 | 140 | 0.9 | 3.5 | 0.01 | 0.21 | 0.20 | 46 | 1003.7 |
| 20260506134536 | 43 | 140 | 0.9 | 4.3 | 0.02 | 0.21 | 0.20 | 46 | 1003.8 |
| 20260506133035 | 43 | 140 | 0.9 | 2.6 | 0.02 | 0.21 | 0.20 | 46 | 1003.6 |
| 20260506131535 | 43 | 133 | 1.7 | 7.0 | 0.02 | 0.20 | 0.19 | 46 | 1003.5 |
| 20260506130034 | 43 | 113 | 2.6 | 7.8 | 0.04 | 0.20 | 0.19 | 46 | 1003.5 |
| 20260506124532 | 43 | 138 | 0.9 | 7.0 | 0.04 | 0.19 | 0.18 | 46 | 1003.6 |
| 20260506123032 | 43 | 136 | 1.7 | 9.6 | 0.05 | 0.19 | 0.18 | 46 | 1003.7 |
| 20260506121529 | 43 | 134 | 1.7 | 6.1 | 0.05 | 0.18 | 0.17 | 46 | 1003.7 |
| 20260506120038 | 43 | 132 | 0.9 | 7.8 | 0.04 | 0.16 | 0.15 | 46 | 1003.8 |
| 20260506114526 | 43 | 136 | 3.5 | 9.6 | 0.05 | 0.15 | 0.14 | 46 | 1003.4 |
| 20260506113029 | 43 | 116 | 1.7 | 7.8 | 0.07 | 0.14 | 0.13 | 46 | 1003.2 |
| 20260506111522 | 43 | 115 | 3.5 | 9.6 | 0.12 | 0.13 | 0.12 | 46 | 1002.9 |